Location: Grieser Field
(39.7333°N, 81.7975°W)
Time: 12:44:42
(UTC-04:00)

Daily predictions for brighter satellites

Satellite Brightness Start Highest point End
(mag) Time Altitude Azimuth Time Altitude Azimuth Time Altitude Azimuth
Cosmos 1809 Rocket 4.5 20:27:23 10° S 20:33:32 75° E 20:39:40 10° N
Cosmos 1892 Rocket 3.9 20:29:19 10° N 20:33:41 49° E 20:38:00 10° SSE
Cosmos 1025 Rocket 3.0 20:30:38 10° N 20:35:01 83° E 20:39:21 10° S
Cosmos 1455 Rocket 3.5 20:34:24 10° SSE 20:38:24 38° E 20:42:27 10° NNE
Cosmos 2369 4.2 20:33:26 10° S 20:38:35 37° ESE 20:43:46 10° NE
H-2A R/B 3.3 20:35:23 10° SE 20:39:00 39° ENE 20:42:41 10° N
Resurs 1-3 3.7 20:34:40 10° SSE 20:39:03 88° WSW 20:43:28 10° NNW
NOSS 2-1 (E) 3.4 20:36:13 10° SSW 20:40:06 88° NW 20:44:32 10° NNE
Cosmos 1461 3.9 20:37:32 10° NNW 20:41:09 29° NE 20:44:37 10° ESE
Meteor 1-23 Rocket 4.2 20:37:20 10° N 20:43:00 77° E 20:48:42 10° SSE
Meteor 1-29 3.9 20:40:28 10° N 20:43:49 53° WNW 20:47:12 10° SSW
Cosmos 2239 Rocket 4.5 20:39:45 10° S 20:45:59 82° E 20:52:12 10° N
Cosmos 1633 3.7 20:47:34 10° SSW 20:51:07 48° W 20:54:41 10° N
Centaur D-1A AC-32 4.1 20:49:15 10° SW 20:51:27 13° SSW 20:53:11 10° SSE
CZ-2D R/B 3.2 20:51:55 10° SSE 20:55:44 71° ENE 20:59:37 10° N
Lacrosse 5 3.7 20:52:15 10° NNW 20:55:57 20° NNE 20:59:39 10° ENE
Resurs 01 Rocket 3.0 20:51:57 10° S 20:56:09 42° W 21:00:23 10° NNW
Cosmos 1934 Rocket 3.9 20:50:09 10° S 20:56:15 77° E 21:02:28 10° N
ATLAS CENTAUR R/B 4.5 20:54:38 10° W 20:58:37 23° NW 21:02:33 10° N
Hubble Space Telescope 3.0 20:58:06 10° SW 21:00:20 14° S 21:02:34 10° SSE
Cosmos 1777 Rocket 4.3 20:58:19 10° NNW 21:03:35 73° WSW 21:08:48 10° S
EP 1 4.0 21:06:55 10° SSW 21:09:24 88° WNW 21:11:59 10° NNE
Delta 2 Rocket 4.4 21:05:08 10° W 21:10:34 49° SSW 21:14:11 18° SE
Cosmos 1346 Rocket 2.7 21:06:58 10° N 21:10:55 89° E 21:14:54 10° S
Cosmos 1544 Rocket 4.2 21:07:49 10° SSW 21:12:07 60° W 21:16:30 10° N
Cosmos 2227 Rocket 2.2 21:07:43 10° NNW 21:13:23 69° ENE 21:18:21 14° SSE
USA 186 1.6 21:10:33 10° S 21:13:41 81° WSW 21:16:40 10° NNW
Tiangong 1 1.8 21:11:08 10° W 21:14:09 47° N 21:16:25 16° ENE
FENGYUN 3A 3.9 21:08:55 10° S 21:14:15 73° WSW 21:19:37 10° NNW
OTV 4 0.8 21:12:35 10° W 21:15:29 50° S 21:16:45 28° SE
Cosmos 2208 Rocket 4.2 21:12:18 10° SSW 21:17:36 78° WNW 21:23:01 10° NNE
Cosmos 1656 3.9 21:14:31 10° S 21:19:52 46° ESE 21:25:10 10° NE
Cosmos 1500 3.9 21:18:30 21° SE 21:20:12 31° E 21:23:34 10° NNE
RESURS DK-1 4.2 21:18:28 10° NNE 21:21:11 17° NE 21:22:21 15° ENE
NOSS 3-4 (A) 3.9 21:14:07 10° NW 21:21:12 82° WSW 21:28:01 13° SSE
NOSS 3-4 (C) 3.9 21:14:14 10° NW 21:21:19 83° WSW 21:28:05 13° SSE
BREEZE-M TANK 3.9 21:08:10 10° WNW 21:22:05 64° N 21:24:54 19° E
Cosmos 2082 3.6 21:21:10 10° NNW 21:26:50 83° ENE 21:31:16 17° SSE
CZ-4 DEB 2.7 21:26:40 30° SE 21:27:59 60° ENE 21:31:06 10° N
Cosmos 2297 Rocket 2.2 21:23:24 10° NNW 21:29:03 67° ENE 21:32:48 22° SE
Cosmos 1340 4.4 21:32:43 10° NNE 21:34:56 17° ENE 21:34:56 17° ENE
Envisat 3.2 21:34:13 24° SE 21:37:03 54° ENE 21:42:00 10° N
Cosmos 2173 Rocket 4.3 21:32:57 16° SSE 21:37:47 44° E 21:43:44 10° NNE
Milstar 3 Cent rocket 4.5 21:16:56 10° WSW 21:38:37 53° S 21:45:56 24° ESE
Cosmos 1605 Rocket 4.4 21:34:57 10° SSW 21:41:15 68° W 21:47:32 10° N
SJ-11-01 4.2 21:38:17 19° SSE 21:41:38 87° ENE 21:46:21 10° NNW
Cosmos 1937 Rocket 4.2 21:37:06 10° N 21:42:00 37° ENE 21:43:40 30° ESE
Cosmos 1515 3.6 21:39:44 10° N 21:43:35 73° E 21:44:57 38° SSE
ASTEX 1 4.2 21:41:40 10° NNE 21:46:07 31° E 21:46:25 31° E
OAO 2 Rocket 3.7 21:42:19 10° WSW 21:47:08 46° S 21:48:32 37° SE
Cosmos 2100 Rocket 4.0 21:42:26 13° SSE 21:48:05 59° E 21:54:12 10° NNE
Cosmos 2061 Rocket 4.1 21:44:13 17° SSE 21:48:54 54° E 21:55:00 10° NNE
YAOGAN 6 3.9 21:49:35 26° ENE 21:49:35 26° ENE 21:52:14 10° NNE
Cosmos 2150 Rocket 4.0 21:47:29 10° NNW 21:52:36 62° ENE 21:54:22 39° SE
Cosmos 1743 3.2 21:53:16 42° ENE 21:53:16 42° ENE 21:56:37 10° NNE
Iridium 4 Rocket 3.5 21:47:54 10° N 21:53:02 73° W 21:56:49 16° S
YAOGAN 11 4.4 21:50:15 20° S 21:53:19 67° WSW 21:57:47 10° NNW
Cosmos 1825 Rocket 4.0 21:50:54 10° N 21:55:08 42° ENE 21:55:21 41° E
MetOp-A 4.4 21:55:02 37° ESE 21:56:33 48° ENE 22:01:41 10° N
Cosmos 1975 3.7 21:53:26 10° SSW 21:57:24 50° W 22:01:25 10° N
SPOT 1/Viking Rocket 4.4 21:57:13 31° E 21:57:54 32° ENE 22:02:28 10° N
DELTA 2 R/B (1) 3.5 21:52:58 10° W 21:58:32 75° SSW 22:00:24 43° ESE
Cosmos 1066 Rocket 4.1 21:54:51 10° N 22:00:32 83° E 22:03:26 31° SSE
Cosmos 1953 Rocket 4.3 21:59:53 10° N 22:03:44 38° ENE 22:03:44 38° ENE
Cosmos 1697 Rocket 2.6 22:01:03 10° SSW 22:06:42 85° ESE 22:12:23 10° NNE
H-2A R/B 1.8 22:06:31 67° SE 22:06:59 79° ENE 22:11:07 10° N
Lacrosse 5 rocket 1.3 22:05:50 10° NW 22:09:24 57° SW 22:09:24 57° SW
ERS-1 Rocket 3.6 22:07:44 21° S 22:10:53 54° W 22:15:49 10° NNW
SL-16 R/B 4.4 22:15:31 10° NE 22:15:31 10° NE 22:15:31 10° NE
deb Chang Zheng 4 3.6 22:12:10 10° N 22:16:38 79° WNW 22:18:17 38° SSW
Cosmos 1898 Rocket 3.6 22:12:16 10° NNW 22:17:35 75° WSW 22:19:08 46° S
Nimbus 7 Rocket 4.5 22:16:39 10° NNE 22:22:43 83° WNW 22:27:55 15° SSW
Cosmos 1725 Rocket 4.1 22:22:45 48° E 22:23:03 48° E 22:29:00 10° NNE
Cosmos 1758 Rocket 4.1 22:18:56 10° N 22:22:20 44° NE 22:22:20 44° NE
Cosmos 1763 Rocket 3.5 22:24:18 56° ENE 22:24:18 56° ENE 22:28:40 10° NNE
Cosmos 1459 Rocket 4.0 22:21:24 19° SSW 22:25:54 75° W 22:32:01 10° N
Cosmos 1980 Rocket 2.0 22:26:52 43° S 22:28:48 79° ESE 22:34:30 10° NNE
Cosmos 1939 Rocket 4.4 22:27:38 27° SW 22:28:56 34° W 22:32:45 10° NNW
ARGOS 3.2 22:30:52 59° ENE 22:30:58 59° ENE 22:36:16 10° N
Lacrosse 5 1.8 22:34:32 10° NW 22:39:26 78° NNE 22:39:26 78° NNE
SPOT 5 3.4 22:41:21 51° SW 22:42:08 57° WSW 22:46:58 10° NNW
Cosmos 2084 4.3 22:39:06 10° NW 22:42:21 44° W 22:42:21 44° W
Cosmos 2058 Rocket 4.0 22:44:37 42° NNE 22:44:37 42° NNE 22:47:40 10° N
Cosmos 841 Rocket 3.6 22:45:04 66° NNE 22:45:04 66° NNE 22:49:34 10° NNE
USA 215 3.7 22:44:53 43° ENE 22:46:27 52° NE 22:52:45 10° NW
BREEZE-M DEB (TANK) 4.2 22:33:23 10° SW 22:48:09 71° SE 22:49:08 60° E
Meteor 1-21 4.4 22:43:15 10° NNW 22:48:59 69° W 22:49:52 59° SW
MetOp-B 4.5 22:49:20 54° SW 22:50:01 58° WSW 22:55:19 10° NNW
Tiangong 1 4.2 22:47:49 10° WNW 22:48:23 14° WNW 22:48:23 14° WNW
Cosmos 1606 Rocket 4.5 22:54:42 46° WNW 22:54:42 46° WNW 22:58:44 10° N
Cosmos 2263 Rocket 3.6 22:54:23 10° N 22:58:15 26° NE 22:58:15 26° NE
RESURS DK-1 3.9 22:55:32 10° NW 22:58:17 34° WNW 22:58:17 34° WNW
Cosmos 2322 Rocket 3.7 23:03:22 25° NE 23:03:22 25° NE 23:05:43 10° NNE
Cosmos 2360 4.3 23:06:40 73° NW 23:06:40 73° NW 23:12:14 10° NNE
CZ-3C R/B 4.5 22:58:04 10° WSW 23:07:38 16° SW 23:09:52 15° SSW
Meteor 2-9 Rocket 4.4 23:10:24 65° WNW 23:10:24 65° WNW 23:15:29 10° N
Cosmos 2297 Rocket 4.4 23:09:10 10° WNW 23:12:26 16° W 23:14:38 13° SW
BREEZE-M DEB (TANK) 3.9 23:01:47 10° WNW 23:18:07 64° NNE 23:18:46 60° NE
H-2A R/B 3.0 23:19:52 42° N 23:19:52 42° N 23:23:08 10° NNW
Terra 3.3 23:23:37 33° N 23:23:37 33° N 23:26:16 10° N
BREEZE-M DEB (TANK) 4.5 23:42:32 10° W 23:48:16 35° WNW 23:48:16 35° WNW
